EW3845 Weather Reports


time (UTC)temp
C
wind
direction
speed
KPH
gust
KPH
rain 1hr
cm
rain 24hr
cm
rain mn
cm
humidity
%
barometer
mb
20260503203106 15 215 0.0 0.0 0.00 0.10 0.10 88 1011.4
20260503201556 15 215 0.0 0.0 0.00 0.10 0.10 88 1011.2
20260503200055 15 213 0.0 0.0 0.00 0.46 0.10 88 1011.1
20260503194555 15 213 0.0 0.0 0.00 0.46 0.10 89 1011.0
20260503193055 15 191 0.0 0.0 0.00 0.46 0.10 88 1010.9
20260503191603 15 191 0.0 0.0 0.00 0.46 0.10 88 1010.9
20260503190053 16 191 0.0 0.0 0.00 0.89 0.10 87 1010.8
20260503184614 16 191 0.0 0.0 0.00 0.89 0.10 87 1010.7
20260503183054 16 191 0.0 0.0 0.00 0.89 0.10 86 1010.7
20260503181552 16 191 0.0 0.0 0.00 0.89 0.10 86 1010.7
20260503180052 16 191 0.0 0.0 0.00 0.89 0.10 86 1010.7
20260503174654 16 191 0.0 0.0 0.00 0.89 0.10 86 1010.7
20260503174550 16 191 0.0 0.0 0.00 4.39 0.10 86 1010.8
20260503174037 16 191 0.0 0.0 0.00 4.39 0.10 86 1010.7
20260503173549 16 191 0.0 0.0 0.00 4.39 0.10 86 1010.7
20260503173154 16 191 0.0 0.0 0.00 0.89 0.10 86 1010.6
20260503173053 16 191 0.0 0.0 0.00 4.39 0.10 86 1010.7
20260503172544 16 293 0.0 0.0 0.00 4.39 0.10 86 1010.7
20260503172051 16 293 0.0 0.0 0.00 4.39 0.10 86 1010.7
20260503171644 16 293 0.0 0.0 0.00 0.89 0.10 86 1010.6
20260503171543 16 293 0.0 0.0 0.00 4.39 0.10 86 1010.8
20260503171051 16 294 0.0 0.0 0.00 4.39 0.10 86 1010.7
20260503170604 16 294 0.0 0.0 0.00 4.39 0.10 86 1010.7
20260503170151 16 296 0.0 0.0 0.00 0.89 0.10 86 1010.6
20260503160153 15 340 0.0 0.0 0.03 0.89 0.10 89 1011.0
20260503150550 15 294 0.0 0.0 0.00 4.29 0.08 88 1011.0
20260503150139 15 295 0.0 0.0 0.00 0.86 0.08 88 1010.9
20260503140146 16 291 0.0 0.0 0.05 0.86 0.08 85 1011.0
20260503131044 17 296 0.0 0.0 0.30 4.19 0.05 81 1011.2
20260503130557 17 298 0.0 0.0 0.30 4.19 0.05 80 1011.3
20260503130145 17 295 0.0 0.0 0.05 0.81 0.05 79 1011.1
20260503120151 20 286 0.0 0.0 0.00 0.79 0.00 62 1010.9
20260503110544 20 289 0.0 0.0 0.00 3.91 0.00 58 1011.1
20260503110151 20 284 0.0 0.0 0.00 0.79 0.00 57 1010.9
20260503100103 21 155 0.0 0.0 0.00 3.91 0.00 58 1010.7
20260503081556 18 142 0.0 0.0 0.00 0.79 0.00 72 1010.7
20260503071554 15 38 0.0 0.0 0.00 0.79 0.00 92 1010.5
20260503054530 13 61 0.0 0.0 0.00 0.79 0.00 96 1010.7
20260503053021 13 107 0.0 0.0 0.00 0.79 0.00 95 1010.7
20260503051525 12 107 0.0 0.0 0.00 0.79 0.00 96 1010.8
20260503050018 12 107 0.0 0.0 0.00 0.79 0.00 96 1010.7
20260503044516 12 107 0.0 0.0 0.00 0.79 0.00 95 1010.8
20260503043021 13 105 0.0 0.0 0.00 0.79 0.00 95 1010.7
20260503041524 13 98 0.0 0.0 0.00 0.79 0.00 95 1010.7
20260503040017 13 96 0.0 0.0 0.00 0.79 0.00 95 1010.7
20260503034514 13 92 0.0 0.0 0.00 0.79 0.00 95 1010.7
20260503033013 13 92 0.0 0.0 0.00 0.79 0.00 95 1010.8
20260503031512 13 92 0.0 0.0 0.00 0.79 0.00 95 1010.8
20260503030019 13 90 0.0 0.0 0.00 0.79 0.00 95 1010.8
20260503024510 13 86 0.0 0.0 0.00 0.79 0.00 95 1010.8
20260503023010 13 42 0.0 0.0 0.00 0.79 0.00 95 1011.2
20260503021509 13 42 0.0 0.0 0.00 0.79 0.00 95 1011.2
20260503020007 13 42 0.0 0.0 0.00 0.79 0.00 95 1011.5
20260503014506 13 42 0.0 0.0 0.00 0.79 0.00 95 1011.5
20260503013011 13 42 0.0 0.0 0.00 0.79 0.00 95 1011.5
20260503011502 13 41 0.0 0.0 0.00 0.79 0.00 94 1011.9
20260503010001 13 41 0.0 0.0 0.00 0.79 0.00 94 1012.1
20260503004607 13 42 0.0 0.0 0.00 0.79 0.00 94 1012.1
20260503003101 13 55 0.0 0.0 0.00 0.79 0.00 94 1012.4
20260503001557 13 64 0.0 0.0 0.00 0.79 0.00 94 1012.5
20260503000056 13 115 0.0 0.0 0.00 0.79 0.00 94 1012.8
20260502234612 13 115 0.0 0.0 0.00 0.79 0.00 94 1012.8
20260502233057 13 115 0.0 0.0 0.00 0.79 0.00 94 1012.7
20260502231552 13 115 0.0 0.0 0.00 0.79 0.00 94 1012.7
20260502230057 13 115 0.0 0.0 0.00 0.79 0.00 94 1012.8
20260502224548 13 116 0.0 0.0 0.00 0.79 0.00 94 1013.0
20260502223059 13 115 0.0 0.0 0.00 0.79 0.00 94 1013.0
20260502221546 13 115 0.0 0.0 0.00 0.79 0.00 93 1013.1
20260502220047 13 115 0.0 0.0 0.00 0.79 0.79 93 1013.2
20260502214547 13 115 0.0 0.0 0.00 0.79 0.79 93 1013.1
20260502213048 13 144 0.0 0.0 0.00 0.79 0.79 93 1013.0
20260502211542 13 19 0.0 0.0 0.00 0.79 0.79 93 1013.1
20260502210042 13 17 0.0 0.0 0.00 0.79 0.79 92 1013.3
20260502204541 14 22 0.0 0.0 0.00 0.79 0.79 92 1013.3